User: anonymous   Login
Location: Unspecified
(0.0000°N, 0.0000°E)
Time: 16:26:25
(UTC+00:00)
Language:

AMOS 1 - Orbit

View from above orbital plane
View from above orbital plane
View from above satellite
View from above satellite

Ground track
Ground track

The orbit data is extracted from the following two-line orbital elements,

1 23865U 96030B   15024.66415648 -.00000153  00000-0  00000+0 0  2176
2 23865 005.4952 060.4620 0008483 101.5196 024.8482 00.97118214 68156
Epoch (UTC): 24 January 2015 15:56:23
Eccentricity: 0.0008483
inclination: 5.4952°
perigee height: 36657 km
apogee height: 36730 km
right ascension of ascending node: 60.4620°
argument of perigee: 101.5196°
revolutions per day: 0.97118214
mean anomaly at epoch: 24.8482°
orbit number at epoch: 6815

The dashed part of the orbit path shows where the satellite is in the earth's shadow,  

DLR